Flag for Australia Weather past 2 weeks in Mosman, New South Wales, Australia

Now
59 °F

Cool.


Feels Like: N/A
Forecast: 50 / 63 °F
Wind: N/A

Location: Sydney Regional Office

Current Time: May 23, 2015 at 8:36:27 PM

Latest Report: May 23, 2015 at 6:00 PM


Visibility: N/A

Pressure: 30.39 "Hg

Humidity: 60%

Dew point: 45 °F

Location of MosmanLocation

Historic Weather in Mosman — Graph

°F

Mosman temperature yesterday

Maximum temperature yesterday: 64 °F (at 2:00 PM)
Minimum temperature yesterday: 54 °F (at 11:00 PM)
Average temperature yesterday: 58 °F

Past Weeks' High & Low Weather Summary

 TemperatureHumidityPressure
High76 °F (May 20, 2:00 PM)97% (May 18, 5:00 AM)30.58 "Hg (May 18, 5:00 AM)
Low47 °F (May 14, 6:00 AM)30% (May 13, 12:00 PM)29.71 "Hg (May 10, 3:00 PM)
Average60 °F65%30.15 "Hg
* Reported May 8 6:00 PM — May 23 6:00 PM, Mosman, Weather by CustomWeather, © 2015

Note: Actual official high and low records may vary slightly from our data, if they occured in-between our weather recording intervals... More about our weather records

Advertising

Mosman weather history for previous 24 hours

 ConditionsComfort  
Time TempWeatherWind HumidityBarometerVisibility
6:00 PM
Sat, May 23
59 °FCool.N/A60%30.39 "HgN/A
5:00 PM60 °FRefreshingly cool.N/A57%30.38 "HgN/A
3:00 PM64 °FMild.N/A50%30.36 "HgN/A
2:00 PM64 °FMild.N/A49%30.36 "HgN/A
12:00 PM63 °FMild.N/A58%30.36 "HgN/A
11:00 AM61 °FRefreshingly cool.N/A60%30.39 "HgN/A
9:00 AM53 °FCool.N/A69%30.39 "HgN/A
8:00 AM53 °FCool.N/A82%30.38 "HgN/A
6:00 AM51 °FCool.N/A93%30.33 "HgN/A
5:00 AM51 °FCool.N/A93%30.31 "HgN/A
3:00 AM53 °FCool.N/A96%30.31 "HgN/A
2:00 AM53 °FCool.N/A97%30.32 "HgN/A
12:00 AM54 °FCool.N/A95%30.30 "HgN/A
11:00 PM
Fri, May 22
54 °FCool.N/A94%30.30 "HgN/A
9:00 PM55 °FCool.N/A92%30.28 "HgN/A
8:00 PM57 °FCool.N/A88%30.27 "HgN/A
Weather by CustomWeather, © 2015

See weather overviewHow to use our weather pages